Location: Unspecified
(0.0000°N, 0.0000°E)
Time: 12:47:36
(UTC+00:00)

Vanguard 2 - Pass Details

Date: 25 September 2019
Orbit: 554 x 2937 km, 32.9° (Epoch: 13 October)

Event Time Altitude Azimuth Distance (km) Brightness Sun altitude
Rises 08:52:14 0° 319° (NW) 3,511 10.6 45.1°
Reaches altitude 10° 08:55:27 10° 330° (NNW) 2,279 9.8 45.9°
Maximum altitude 08:59:46 28° 30° (NNE) 1,154 9.1 47.0°
Drops below altitude 10° 09:03:17 10° 91° (E) 1,843 10.5 47.9°
Sets 09:05:36 0° 104° (ESE) 2,714 11.0 48.4°
